TimePDT,TemperatureF,Dew PointF,Humidity,Sea Level PressureIn,VisibilityMPH,Wind Direction,Wind SpeedMPH,Gust SpeedMPH,PrecipitationIn,Events,Conditions,WindDirDegrees,DateUTC
12:53 AM,54.0,44.1,69,30.06,10.0,West,8.1,-,N/A,,Mostly Cloudy,280,2013-05-18 07:53:00
1:53 AM,52.0,43.0,71,30.06,10.0,West,8.1,-,N/A,,Partly Cloudy,260,2013-05-18 08:53:00
2:53 AM,53.1,44.1,71,30.07,10.0,West,10.4,-,N/A,,Scattered Clouds,270,2013-05-18 09:53:00
3:53 AM,50.0,43.0,77,30.07,10.0,WSW,8.1,-,N/A,,Scattered Clouds,250,2013-05-18 10:53:00
4:53 AM,50.0,43.0,77,30.08,10.0,West,8.1,-,N/A,,Clear,270,2013-05-18 11:53:00
5:53 AM,48.9,42.1,77,30.09,10.0,SW,5.8,-,N/A,,Clear,230,2013-05-18 12:53:00
6:53 AM,53.1,44.1,71,30.10,10.0,NW,3.5,-,N/A,,Clear,320,2013-05-18 13:53:00
7:53 AM,57.0,44.1,62,30.10,10.0,West,9.2,-,N/A,,Overcast,270,2013-05-18 14:53:00
8:53 AM,59.0,42.1,53,30.11,10.0,WNW,12.7,-,N/A,,Mostly Cloudy,290,2013-05-18 15:53:00
9:53 AM,59.0,42.1,53,30.11,10.0,WNW,12.7,-,N/A,,Mostly Cloudy,290,2013-05-18 16:53:00
10:53 AM,57.0,45.0,64,30.12,10.0,NW,12.7,20.7,0.00,Rain,Light Rain,310,2013-05-18 17:53:00
11:53 AM,55.0,46.9,74,30.14,10.0,NW,10.4,-,0.00,Rain,Light Rain,310,2013-05-18 18:53:00
12:53 PM,59.0,45.0,60,30.14,10.0,NW,13.8,-,0.00,,Overcast,310,2013-05-18 19:53:00
1:53 PM,63.0,43.0,48,30.14,10.0,WNW,18.4,-,0.00,,Scattered Clouds,300,2013-05-18 20:53:00
2:53 PM,64.0,43.0,46,30.13,10.0,WNW,19.6,25.3,N/A,,Scattered Clouds,300,2013-05-18 21:53:00
3:53 PM,63.0,44.1,50,30.14,10.0,NW,18.4,26.5,N/A,,Partly Cloudy,320,2013-05-18 22:53:00
4:53 PM,63.0,44.1,50,30.14,10.0,WNW,23.0,31.1,N/A,,Clear,300,2013-05-18 23:53:00
5:53 PM,60.1,44.1,55,30.15,10.0,WNW,20.7,29.9,N/A,,Clear,300,2013-05-19 00:53:00
6:53 PM,60.1,45.0,57,30.16,10.0,WNW,18.4,26.5,N/A,,Clear,300,2013-05-19 01:53:00
7:53 PM,57.9,45.0,62,30.17,10.0,WNW,16.1,26.5,N/A,,Clear,300,2013-05-19 02:53:00
8:53 PM,55.9,45.0,67,30.20,10.0,NW,13.8,-,N/A,,Clear,310,2013-05-19 03:53:00
9:53 PM,55.0,45.0,69,30.22,10.0,NNW,9.2,-,N/A,,Clear,330,2013-05-19 04:53:00
10:53 PM,55.0,45.0,69,30.23,10.0,NW,4.6,-,N/A,,Clear,310,2013-05-19 05:53:00
11:53 PM,54.0,45.0,72,30.23,10.0,West,4.6,-,N/A,,Partly Cloudy,260,2013-05-19 06:53:00